📊 Raw Sensor Data

Showing records 45101 to 45125 of 85,047 total

ID Distance (ft) Battery V Battery A Int Temp (°F) Int Humid (%) Ext Temp (°F) Solar V RSSI SNR Time Stamp
39959 16.0 3.98 0 89 41 81 5.10 -70 8 05/07/2025 03:15 PM
39958 16.0 3.98 0 89 40 80 5.10 -70 8 05/07/2025 03:00 PM
39957 -- 4.03 0 87 40 80 5.10 -71 8 05/07/2025 02:45 PM
39956 -- 4.07 0 86 40 79 5.10 -71 8 05/07/2025 02:30 PM
39955 -- 3.99 0 85 40 78 5.10 -72 8 05/07/2025 02:15 PM
39954 16.1 3.99 0 83 39 77 5.10 -70 8 05/07/2025 02:00 PM
39953 16.0 4.06 0 82 39 73 5.10 -71 8 05/07/2025 01:45 PM
39952 -- 3.99 0 80 40 74 5.10 -70 8 05/07/2025 01:30 PM
39951 -- 3.99 0 78 40 72 5.10 -69 8 05/07/2025 01:15 PM
39950 16.1 3.99 0 77 40 74 5.10 -72 7 05/07/2025 01:00 PM
39949 -- 4.11 0 74 41 71 5.10 -69 8 05/07/2025 12:45 PM
39948 -- 3.99 0 74 41 69 5.10 -70 8 05/07/2025 12:30 PM
39947 -- 3.99 0 74 41 71 5.10 -70 8 05/07/2025 12:15 PM
39946 -- 3.99 0 72 41 71 5.10 -73 8 05/07/2025 12:00 PM
39945 -- 3.98 0 71 41 70 5.10 -72 8 05/07/2025 11:45 AM
39944 16.4 3.99 0 70 42 69 5.10 -72 8 05/07/2025 11:30 AM
39943 -- 3.99 0 69 42 71 5.10 -71 8 05/07/2025 11:15 AM
39942 16.3 3.99 0 69 41 67 5.10 -71 8 05/07/2025 11:00 AM
39941 16.3 3.98 0 68 41 67 5.10 -71 8 05/07/2025 10:45 AM
39940 16.3 3.98 0 67 41 68 5.10 -70 8 05/07/2025 10:30 AM
39939 16.3 4.08 0 67 41 64 5.10 -72 8 05/07/2025 10:15 AM
39938 16.3 3.98 0 65 41 67 5.10 -69 8 05/07/2025 09:45 AM
39937 16.3 3.98 0 65 41 66 5.10 -69 8 05/07/2025 09:30 AM
39936 16.3 4.05 0 64 41 67 5.10 -70 8 05/07/2025 09:15 AM
39935 16.3 3.98 0 63 41 65 5.10 -72 8 05/07/2025 09:00 AM